This demonstration page uses our WeatherBlox Daily Observations layout. Learn more.

Left ArrowRight Arrow

47.50024, -111.30081

Hourly Observations for May 26, 2022

Temp ( °F °C ) Dew Point ( °F °C ) Humidity (%) Winds ( mph kmh ) Pressure ( in mb ) Visibility ( mi km ) Precip ( " mm )
12:53 am 00:53 Clear 48 8.9 38 3.3 68 68 Calm 29.93 1014 10 16 0.00 0.00
1:53 am 01:53 Clear 50 10 39 3.9 66 66 SW 14 22 29.90 1013 10 16 0.00 0.00
2:53 am 02:53 Clear 47 8.3 38 3.3 71 71 NNE 3 6 29.92 1013 10 16 0.00 0.00
3:53 am 03:53 Clear 48 8.9 38 3.3 68 68 WSW 10 17 29.93 1013 10 16 0.00 0.00
4:53 am 04:53 Clear 43 6.1 37 2.8 80 80 SW 6 9 29.95 1014 10 16 0.00 0.00
5:53 am 05:53 Sunny 47 8.3 40 4.4 77 77 W 9 15 29.96 1014 10 16 0.00 0.00
6:53 am 06:53 Sunny 54 12.2 42 5.6 64 64 WSW 7 11 29.94 1014 10 16 0.00 0.00
7:53 am 07:53 Sunny 61 16.1 40 4.4 46 46 W 7 11 29.93 1014 10 16 0.00 0.00
8:53 am 08:53 Sunny 63 17.2 39 3.9 41 41 W 12 19 29.94 1014 10 16 0.00 0.00
9:53 am 09:53 Sunny 64 17.8 38 3.3 38 38 W 13 20 29.96 1015 10 16 0.00 0.00
10:53 am 10:53 Sunny 65 18.3 38 3.3 37 37 WSW 12 19 29.95 1014 10 16 0.00 0.00
11:53 am 11:53 Sunny 66 18.9 39 3.9 37 37 W 8 13 29.94 1014 10 16 0.00 0.00
12:53 pm 12:53 Sunny 66 18.9 40 4.4 39 39 WSW 8 13 29.94 1014 10 16 0.00 0.00
1:53 pm 13:53 Sunny 67 19.4 40 4.4 37 37 WNW 5 7 29.92 1013 10 16 0.00 0.00
2:53 pm 14:53 Sunny 67 19.4 41 5 39 39 NE 5 7 29.91 1013 10 16 0.00 0.00
3:53 pm 15:53 Sunny 71 21.7 43 6.1 36 36 E 9 15 29.88 1012 10 16 0.00 0.00
4:53 pm 16:53 Sunny 72 22.2 41 5 33 33 ENE 8 13 29.86 1011 10 16 0.00 0.00
5:53 pm 17:53 Sunny 73 22.8 40 4.4 30 30 NE 8 13 29.84 1010 10 16 0.00 0.00
6:53 pm 18:53 Sunny 71 21.7 40 4.4 32 32 ENE 12 19 29.81 1009 10 16 0.00 0.00
7:53 pm 19:53 Sunny 68 20 39 3.9 35 35 ENE 14 22 29.80 1009 10 16 0.00 0.00
8:53 pm 20:53 Sunny 65 18.3 38 3.3 37 37 ENE 13 20 29.80 1009 10 16 0.00 0.00
9:53 pm 21:53 Clear 63 17.2 38 3.3 40 40 ENE 10 17 29.79 1009 10 16 0.00 0.00
10:53 pm 22:53 Clear 60 15.6 38 3.3 44 44 E 10 17 29.81 1009 10 16 0.00 0.00
11:53 pm 23:53 Mostly Cloudy 61 16.1 39 3.9 44 44 E 13 20 29.78 1009 10 16 0.00 0.00

Powered by AerisWeather